Track COSMOS 1574 now! 10-day predictions COSMOS 1574 is classified as:
1 15055U 84062A 24326.06770984 .00000096 00000-0 84898-4 0 9990 2 15055 82.9547 141.5525 0026693 207.1008 289.3745 13.74482521 27026